Time,TemperatureF,DewpointF,PressureIn,WindDirection,WindDirectionDegrees,WindSpeedMPH,WindSpeedGustMPH,Humidity,HourlyPrecipIn,Conditions,Clouds,dailyrainin,SoftwareType,DateUTC
2017-07-25 00:00:00,71.6,64.7,29.93,NW,314,6.0,6.0,79,0.00,,,0.00,Wunderground v.1.15,2017-07-25 04:00:00,
2017-07-25 00:10:00,71.9,65.0,29.93,NW,307,5.0,5.0,79,0.00,,,0.00,Wunderground v.1.15,2017-07-25 04:10:00,
2017-07-25 00:20:00,71.9,65.0,29.93,WNW,288,6.0,6.0,79,0.00,,,0.00,Wunderground v.1.15,2017-07-25 04:20:00,
2017-07-25 00:30:00,71.6,65.1,29.93,NW,309,6.0,6.0,80,0.00,,,0.00,Wunderground v.1.15,2017-07-25 04:30:00,
2017-07-25 00:40:00,71.2,65.1,29.93,WNW,296,5.0,5.0,81,0.00,,,0.00,Wunderground v.1.15,2017-07-25 04:40:00,
2017-07-25 00:50:00,70.8,65.4,29.93,WNW,288,6.0,6.0,83,0.00,,,0.00,Wunderground v.1.15,2017-07-25 04:50:00,
2017-07-25 01:00:00,70.6,65.2,29.93,NW,313,5.0,5.0,83,0.00,,,0.00,Wunderground v.1.15,2017-07-25 05:00:00,
2017-07-25 01:10:00,70.6,65.5,29.93,WNW,289,5.0,5.0,84,0.00,,,0.00,Wunderground v.1.15,2017-07-25 05:10:00,
2017-07-25 01:20:00,70.3,65.2,29.94,WNW,289,5.0,5.0,84,0.00,,,0.00,Wunderground v.1.15,2017-07-25 05:20:00,
2017-07-25 01:30:00,70.1,65.4,29.94,WNW,298,5.0,5.0,85,0.00,,,0.00,Wunderground v.1.15,2017-07-25 05:30:00,
2017-07-25 01:40:00,70.0,65.3,29.94,WNW,288,5.0,10.0,85,0.00,,,0.00,Wunderground v.1.15,2017-07-25 05:40:00,
2017-07-25 01:50:00,70.1,65.4,29.94,WNW,296,6.0,10.0,85,0.00,,,0.00,Wunderground v.1.15,2017-07-25 05:50:00,
2017-07-25 02:00:00,70.2,65.5,29.94,NW,311,5.0,5.0,85,0.00,,,0.00,Wunderground v.1.15,2017-07-25 06:00:00,
2017-07-25 02:10:00,70.3,65.6,29.94,WNW,295,7.0,10.0,85,0.00,,,0.00,Wunderground v.1.15,2017-07-25 06:10:00,
2017-07-25 02:20:00,70.3,65.6,29.93,WNW,294,8.0,8.0,85,0.00,,,0.00,Wunderground v.1.15,2017-07-25 06:20:00,
2017-07-25 02:30:00,69.9,65.2,29.93,NW,317,7.0,7.0,85,0.00,,,0.00,Wunderground v.1.15,2017-07-25 06:30:00,
2017-07-25 02:40:00,69.4,65.4,29.93,NW,315,5.0,10.0,87,0.00,,,0.00,Wunderground v.1.15,2017-07-25 06:40:00,
2017-07-25 02:50:00,69.0,65.3,29.93,WNW,297,4.0,4.0,88,0.00,,,0.00,Wunderground v.1.15,2017-07-25 06:50:00,
2017-07-25 03:00:00,68.8,65.1,29.93,WNW,293,5.0,10.0,88,0.00,,,0.00,Wunderground v.1.15,2017-07-25 07:00:00,
2017-07-25 03:10:00,68.9,65.2,29.93,WNW,296,6.0,10.0,88,0.00,,,0.00,Wunderground v.1.15,2017-07-25 07:10:00,
2017-07-25 03:20:00,68.9,65.2,29.93,WNW,301,7.0,10.0,88,0.00,,,0.00,Wunderground v.1.15,2017-07-25 07:20:00,
2017-07-25 03:30:00,68.8,65.1,29.93,WNW,300,7.0,12.0,88,0.00,,,0.00,Wunderground v.1.15,2017-07-25 07:30:00,
2017-07-25 03:40:00,68.6,64.9,29.93,NW,304,7.0,10.0,88,0.00,,,0.00,Wunderground v.1.15,2017-07-25 07:40:00,
2017-07-25 03:50:00,68.6,64.9,29.92,WNW,300,7.0,10.0,88,0.00,,,0.00,Wunderground v.1.15,2017-07-25 07:50:00,
2017-07-25 04:00:00,68.6,64.9,29.93,WNW,296,7.0,7.0,88,0.00,,,0.00,Wunderground v.1.15,2017-07-25 08:00:00,
2017-07-25 04:10:00,68.6,64.9,29.93,NW,310,8.0,10.0,88,0.00,,,0.00,Wunderground v.1.15,2017-07-25 08:10:00,
2017-07-25 04:20:00,68.3,64.9,29.93,NW,325,9.0,10.0,89,0.00,,,0.00,Wunderground v.1.15,2017-07-25 08:20:00,
2017-07-25 04:30:00,68.2,65.2,29.94,NNW,329,8.0,11.0,90,0.00,,,0.00,Wunderground v.1.15,2017-07-25 08:30:00,
2017-07-25 04:40:00,68.0,65.0,29.94,NW,313,7.0,10.0,90,0.00,,,0.00,Wunderground v.1.15,2017-07-25 08:40:00,
2017-07-25 04:50:00,68.0,65.0,29.94,WNW,298,7.0,10.0,90,0.00,,,0.00,Wunderground v.1.15,2017-07-25 08:50:00,
2017-07-25 05:00:00,67.9,64.9,29.94,NW,312,5.0,10.0,90,0.00,,,0.00,Wunderground v.1.15,2017-07-25 09:00:00,
2017-07-25 05:10:00,67.8,65.1,29.94,WNW,290,5.0,10.0,91,0.00,,,0.00,Wunderground v.1.15,2017-07-25 09:10:00,
2017-07-25 05:20:00,67.9,64.9,29.95,NNE,12,5.0,5.0,90,0.00,,,0.00,Wunderground v.1.15,2017-07-25 09:20:00,
2017-07-25 05:30:00,67.9,64.9,29.95,WNW,298,6.0,10.0,90,0.00,,,0.00,Wunderground v.1.15,2017-07-25 09:30:00,
2017-07-25 05:40:00,67.8,64.8,29.95,NW,310,8.0,8.0,90,0.00,,,0.00,Wunderground v.1.15,2017-07-25 09:40:00,
2017-07-25 05:50:00,67.8,64.8,29.96,WNW,302,7.0,7.0,90,0.00,,,0.00,Wunderground v.1.15,2017-07-25 09:50:00,
2017-07-25 06:00:00,67.7,64.7,29.97,NNW,344,6.0,6.0,90,0.00,,,0.00,Wunderground v.1.15,2017-07-25 10:00:00,
2017-07-25 06:10:00,67.7,64.7,29.97,NW,320,5.0,10.0,90,0.00,,,0.00,Wunderground v.1.15,2017-07-25 10:10:00,
2017-07-25 06:20:00,67.5,64.5,29.98,NW,323,6.0,10.0,90,0.00,,,0.00,Wunderground v.1.15,2017-07-25 10:20:00,
2017-07-25 06:30:00,67.3,64.3,29.99,NNE,16,5.0,5.0,90,0.00,,,0.00,Wunderground v.1.15,2017-07-25 10:30:00,
2017-07-25 06:40:00,67.6,64.6,29.99,North,350,6.0,10.0,90,0.00,,,0.00,Wunderground v.1.15,2017-07-25 10:40:00,
2017-07-25 06:50:00,67.7,64.7,29.99,North,5,5.0,10.0,90,0.00,,,0.00,Wunderground v.1.15,2017-07-25 10:50:00,
2017-07-25 07:00:00,67.6,64.9,29.99,NNW,342,5.0,10.0,91,0.00,,,0.00,Wunderground v.1.15,2017-07-25 11:00:00,
2017-07-25 07:10:00,67.5,64.8,29.99,North,5,4.0,4.0,91,0.00,,,0.00,Wunderground v.1.15,2017-07-25 11:10:00,
2017-07-25 07:20:00,67.4,64.4,30.00,NW,304,5.0,10.0,90,0.00,,,0.00,Wunderground v.1.15,2017-07-25 11:20:00,
2017-07-25 07:30:00,67.8,64.8,30.00,NW,314,7.0,7.0,90,0.00,,,0.00,Wunderground v.1.15,2017-07-25 11:30:00,
2017-07-25 07:40:00,68.7,65.0,30.00,NW,312,6.0,10.0,88,0.00,,,0.00,Wunderground v.1.15,2017-07-25 11:40:00,
2017-07-25 07:50:00,69.2,65.5,30.01,West,277,5.0,10.0,88,0.00,,,0.00,Wunderground v.1.15,2017-07-25 11:50:00,
2017-07-25 08:00:00,69.7,65.7,30.01,NW,322,4.0,10.0,87,0.00,,,0.00,Wunderground v.1.15,2017-07-25 12:00:00,
2017-07-25 08:10:00,70.1,66.0,30.01,WNW,289,5.0,5.0,87,0.00,,,0.00,Wunderground v.1.15,2017-07-25 12:10:00,
2017-07-25 08:20:00,70.8,66.1,30.02,NW,305,4.0,5.0,85,0.00,,,0.00,Wunderground v.1.15,2017-07-25 12:20:00,
2017-07-25 08:30:00,71.2,65.8,30.02,NW,311,4.0,5.0,83,0.00,,,0.00,Wunderground v.1.15,2017-07-25 12:30:00,
2017-07-25 08:40:00,71.7,65.6,30.02,NW,306,6.0,6.0,81,0.00,,,0.00,Wunderground v.1.15,2017-07-25 12:40:00,
2017-07-25 08:50:00,72.0,66.6,30.02,WNW,296,5.0,5.0,83,0.00,,,0.00,Wunderground v.1.15,2017-07-25 12:50:00,
2017-07-25 09:00:00,72.6,66.4,30.02,NW,317,4.0,4.0,81,0.00,,,0.00,Wunderground v.1.15,2017-07-25 13:00:00,
2017-07-25 09:10:00,72.8,66.3,30.02,WNW,302,4.0,11.0,80,0.00,,,0.00,Wunderground v.1.15,2017-07-25 13:10:00,
2017-07-25 09:20:00,73.5,66.6,30.02,WNW,289,3.0,3.0,79,0.00,,,0.00,Wunderground v.1.15,2017-07-25 13:20:00,
2017-07-25 09:30:00,73.9,66.2,30.02,WNW,285,4.0,11.0,77,0.00,,,0.00,Wunderground v.1.15,2017-07-25 13:30:00,
2017-07-25 09:40:00,74.2,66.5,30.02,NW,316,4.0,11.0,77,0.00,,,0.00,Wunderground v.1.15,2017-07-25 13:40:00,
2017-07-25 09:50:00,74.7,67.0,30.02,North,355,5.0,5.0,77,0.00,,,0.00,Wunderground v.1.15,2017-07-25 13:50:00,
2017-07-25 10:00:00,75.0,66.1,30.02,WNW,285,5.0,5.0,74,0.00,,,0.00,Wunderground v.1.15,2017-07-25 14:00:00,